Tracking 19709 objects as of 20-Jun-2019
HD Live streaming from Space Station
objects crossing your sky now

O3B FM4

Track O3B FM4 now!
10-day predictions
O3B FM4 is classified as:


NORAD ID: 39189
Int'l Code: 2013-031B
Perigee: 8,069.1 km
Apogee: 8,076.9 km
Inclination: 0.0 °
Period: 287.9 minutes
Semi major axis: 14444 km
RCS: Unknown
Launch date: June 25, 2013
Source: O3b Networks (O3B)
Launch site: FRENCH GUIANA (FRGUI)

O3b satellites will reach customers across the planet between 45 degrees north and south latitude. O3b offers the benefits of fiber-optic lines without the costs to maintain them.
aabbcc
Your satellite tracking list
Your tracking list is empty




NASA's NSSDC Master Catalog

Two Line Element Set (TLE):
1 39189U 13031B   19169.60565906 -.00000029 +00000-0 +00000-0 0  9993
2 39189 000.0360 356.6848 0002701 094.1101 269.2346 05.00115979109297
Source of the keplerian elements: AFSPC